Regional Weather Roundup
Issued by NWS

Home | Current Version | Previous Version | Graphics & Text | Print | Product List | Glossary Off
Versions: 1 2 3 4 5 6 7 8 9 10 11 12 13 14 15 16 17 18 19 20 21 22 23 24 25 26 27 28 29 30 31 32 33 34 35 36 37 38 39 40 41 42 43 44 45 46 47 48 49 50

577
ASUS43 KMPX 291310
RWRMN
WEATHER ROUNDUP FOR MINNESOTA
NATIONAL WEATHER SERVICE TWIN CITIES/CHANHASSEN MN
800 AM CDT SUN MAY 29 2016


NOTE: "FAIR" INDICATES FEW OR NO CLOUDS BELOW 12,000 FEET WITH NO
SIGNIFICANT WEATHER AND/OR OBSTRUCTIONS TO VISIBILITY. N/A MEANS
CURRENT SKY AND/OR WEATHER CONDITIONS ARE NOT AVAILABLE.

MNZ060>063-068>070-291400-
   Twin Cities Metro

CITY           SKY/WX    TMP DP  RH WIND       PRES   REMARKS
TWIN CITIES    CLOUDY    64  58  80 W12       29.90R
ST PAUL        CLOUDY    63  59  87 W10       29.89R
CRYSTAL        CLOUDY    63  57  81 W8        29.88R
BLAINE         CLOUDY    63  63 100 W12       29.89R
EDEN PRAIRIE   CLOUDY    63  58  83 W7        29.90R
SOUTH ST PAUL  CLOUDY    63  60  90 W8        29.90R
LAKE ELMO      CLOUDY    63  59  88 W9        29.90R
$$
MNZ001>005-007-008-013>017-022>024-027-028-291400-
   Northwest Minnesota

CITY           SKY/WX    TMP DP  RH WIND       PRES   REMARKS
BEMIDJI        CLOUDY    56  55  94 NW14      29.88R
HALLOCK        CLOUDY    57  55  94 NW8       29.91R
ROSEAU         CLOUDY    55  50  82 NW8       29.87F
WARROAD        LGT RAIN  55  52  88 NW7       29.88R
THIEF RVR FALL CLOUDY    57  54  88 NW10      29.92R
CROOKSTON      CLOUDY    59  57  94 NW7       29.92R
FOSSTON        CLOUDY    55  55 100 W8        29.91R
DETROIT LAKES  CLOUDY    59  55  88 NW10      29.93R
MOORHEAD       MOSUNNY   61  57  88 NW9       29.93R
PARK RAPIDS    CLOUDY    59  55  87 NW10      29.89R
MAHNOMEN       CLOUDY    57  56  97 W8        29.91R
$$
MNZ006-009>011-018-025>026-291400-
   North Central Minnesota

CITY           SKY/WX    TMP DP  RH WIND       PRES   REMARKS
BAUDETTE       LGT RAIN  55  53  93 NW15      29.85R
FLAG ISLAND    DRIZZLE   54  52  94 NW14      29.84S
INTL FALLS     LGT RAIN  55  54  96 W6        29.81R FOG
WASKISH        DRIZZLE   55  55 100 W12       29.86R
BIG FORK       CLOUDY    57  54  88 W5        29.84R
LONGVILLE      CLOUDY    57  55  94 W9G16     29.87R
GRAND RAPIDS   CLOUDY    58  55  90 SW14      29.85R
CRANE LAKE     DRIZZLE   55  55 100 SW3       29.80R
ORR            CLOUDY    55  54  94 NW8       29.78R
COOK           DRIZZLE   55  55 100 W9        29.81R
WALKER         CLOUDY    56  54  92 W8        29.87S
$$
MNZ012-019>021-037-291400-
   Northeast Minnesota

CITY           SKY/WX    TMP DP  RH WIND       PRES   REMARKS
DULUTH         CLOUDY    59  58  96 W10       29.81R
ELY            DRIZZLE   59  57  94 SW3       29.78S
HIBBING        CLOUDY    56  55  97 NW12G21   29.82R
EVELETH        CLOUDY    57  57 100 W15       29.82R FOG
DULUTH HARBOR  CLOUDY    57  55  94 SW9       29.81R
TWO HARBORS    CLOUDY    59  54  82 CALM      29.77S
SILVER BAY     CLOUDY    57  57 100 CALM      29.77S
GRAND MARAIS     N/A     48  47  96 CALM      29.77S
G MARAIS ARPRT RAIN      55  54  94 CALM      29.79R VSB 1/2
$$
MNZ029>031-032-039>041-046>048-054>057-064-291400-
   West Central Minnesota

CITY           SKY/WX    TMP DP  RH WIND       PRES   REMARKS
FERGUS FALLS   PTSUNNY   59  59 100 NW8       29.90S FOG
WHEATON        SUNNY     63  59  88 W9        29.96S
MORRIS         PTSUNNY   61  59  94 NW7       29.93R FOG
ALEXANDRIA     PTSUNNY   60  57  89 NW12      29.93S
ELBOW LAKE     FOG       57  57 100 NW6       29.94R VSB 1
WADENA         CLOUDY    57  55  94 NW10      29.91R
GLENWOOD       SUNNY     61  57  88 W8        29.94R
APPLETON       SUNNY     63  57  82 NW10      29.93S
ORTONVILLE     SUNNY     63  55  77 W10       29.95R
MADISON        SUNNY     63  55  77 W10       29.95R
WILLMAR        FAIR      63  59  88 W9        29.95R
$$
MNZ033>034-036-042>043-049>051-058-059-291400-
   Central Minnesota

CITY           SKY/WX    TMP DP  RH WIND       PRES   REMARKS
ST CLOUD       CLOUDY    62  59  90 W10       29.89R
SAUK CENTRE    FAIR      59  57  92 W8        29.92R
PAYNESVILLE    PTSUNNY   60  60  97 W9        29.93R
AITKIN         CLOUDY    63  55  77 W3        29.84R
PINE RIVER     CLOUDY    57  57 100 W6        29.91R
BRAINERD       CLOUDY    59  57  93 NW9       29.88R
STAPLES        CLOUDY    57  55  94 NW7       29.90R
LONG PRAIRIE   CLOUDY    59  55  88 W8        29.92R
LITTLE FALLS   CLOUDY    61  55  82 W9        29.89R
LITCHFIELD     MOSUNNY   63  61  94 W8        29.93R
BUFFALO        CLOUDY    62  58  85 W9        29.91R
MAPLE LAKE     CLOUDY    63  60  91 W7        29.91R
HUTCHINSON     MOSUNNY   62  60  93 W10       29.94R
$$
MNZ037-044-045-052-053-291400-
   East Central Minnesota

CITY           SKY/WX    TMP DP  RH WIND       PRES   REMARKS
PRINCETON      CLOUDY    63  61  94 W9        29.88R
MORA           CLOUDY    59  55  88 W6        29.87S
CAMBRIDGE      CLOUDY    64  55  72 W12G17    29.86R
RUSH CITY      CLOUDY    61  58  90 W6        29.87R
MOOSE LAKE     CLOUDY    61  57  88 W6        29.82R
HINCKLEY       CLOUDY    61  61 100 W7        29.85R
CLOQUET        CLOUDY    61  57  88 W6        29.82R
MCGREGOR       CLOUDY    59  57  94 W6        29.85R
$$
MNZ071>073-080-081-089-090-097-098-291400-
   Southwest Minnesota

CITY           SKY/WX    TMP DP  RH WIND       PRES   REMARKS
MONTEVIDEO     SUNNY     64  61  88 NW6       29.96R
GRANITE FALLS  SUNNY     64  59  86 W9        29.96S
CANBY          SUNNY     66  60  80 SW12      29.97S
MARSHALL       SUNNY     64  59  83 W14       29.97R
REDWOOD FALLS  SUNNY     62  57  83 W12       29.94R
OLIVIA         SUNNY     61  57  88 W10       29.93S
PIPESTONE      SUNNY     61  59  94 W8        30.01R
WINDOM         SUNNY     63  59  88 CALM      29.98S
WORTHINGTON    SUNNY     60  58  92 SW14      30.02R
JACKSON        SUNNY     63  55  77 W10       30.00R
TRACY          SUNNY     64  59  86 W7        29.98R
SLAYTON        SUNNY     62  59  90 W12       30.00R
$$
MNZ065>067-074>077-082>085-091>093-291400-
   South Central Minnesota

CITY           SKY/WX    TMP DP  RH WIND       PRES   REMARKS
MANKATO        SUNNY     63  57  82 W10       29.94S
NEW ULM        SUNNY     63  61  94 W13       29.95R
ST JAMES       SUNNY     59  54  82 W10       29.98R
FAIRMONT       SUNNY     63  54  72 W10       29.98R
GLENCOE        MOSUNNY   63  61  94 W9        29.92R
FARIBAULT      CLOUDY    63  59  88 W8        29.93R
OWATONNA       MOSUNNY   63  59  88 W8        29.94S
WASECA         SUNNY     63  59  88 W13       29.96S
ALBERT LEA     MOSUNNY   63  61  94 W8        29.96R
$$
MNZ078>079-086>088-094>096-291400-
   Southeast Minnesota

CITY           SKY/WX    TMP DP  RH WIND       PRES   REMARKS
ROCHESTER      PTSUNNY   62  60  93 W15       29.95R
RED WING       CLOUDY    63  61  94 W9        29.89R
STANTON        CLOUDY    63  58  85 W7        29.91R
DODGE CENTER   MOSUNNY   61  61 100 W12       29.94S
WINONA         CLOUDY    63  59  88 NW6       29.92R
AUSTIN         MOSUNNY   63  57  82 W9        29.95S
PRESTON        CLOUDY    61  57  87 W12G17    29.95R
$$
ABBREVIATIONS USED IN REMARKS
   TC - TEMPERATURES IN CELSIUS
  WCI - WIND CHILL INDEX
   HX - HEAT INDEX
  VSB - VISIBILITY
$$




USA.gov is the U.S. government's official web portal to all federal, state and local government web resources and services.